Regional Weather Roundup
Issued by NWS

Home | Current Version | Previous Version | Text Only | Print | Product List | Glossary Off
Versions: 1 2 3 4 5 6 7 8 9 10 11 12 13 14 15 16 17 18 19 20 21 22 23 24 25 26 27 28 29 30 31 32 33 34 35 36 37 38 39 40 41 42 43 44 45 46 47 48 49 50

000
ASUS43 KDMX 191606
RWRIA

WEATHER ROUNDUP FOR IOWA
NATIONAL WEATHER SERVICE DES MOINES IA
1100 AM CDT SAT AUG 19 2017

NOTE: "FAIR" INDICATES FEW OR NO CLOUDS BELOW 12,000 FEET WITH NO
SIGNIFICANT WEATHER AND/OR OBSTRUCTIONS TO VISIBILITY.

* - THESE STATIONS ARE NOT NWS STATIONS...THUS NOT UNDER NWS
QUALITY CONTROL.  THEY ALSO DO NOT REPORT WEATHER SUCH
AS PRECIPITATION OR FOG.

IAZ001>003-012>014-020>022-031>034-043>046-191700-
   NORTHWEST IOWA

CITY           SKY/WX    TMP DP  RH WIND       PRES   REMARKS
CARROLL *      PTSUNNY   68  66  94 NW5       29.99S
CHEROKEE *     PTSUNNY   65  64  96 CALM      29.99S
DENISON *      SUNNY     72  64  78 CALM      30.00F
LE MARS *      MOSUNNY   66  63  88 SE5       29.98F
ORANGE CITY *  CLOUDY    64  64 100 CALM      29.99S
SHELDON *      PTSUNNY   66  64  94 SE6       29.97F
SIOUX CITY     SUNNY     71  64  78 SE7       29.97F
SPENCER        SUNNY     69  62  78 VRB3      29.99F
STORM LAKE *   SUNNY     66  63  88 NE6       29.99F
$$

IAZ055>058-069>071-079>083-090>094-191700-
   SOUTHWEST IOWA

CITY           SKY/WX    TMP DP  RH WIND       PRES   REMARKS
ATLANTIC *     SUNNY     73  64  73 N8        29.98S
AUDUBON *      SUNNY     72  66  83 NE6       29.99F
CLARINDA *     SUNNY     77  64  65 CALM      30.00S
COUNCIL BLFS * SUNNY     73  64  73 VRB6      29.98F
CRESTON *      SUNNY     77  61  57 NW9       29.99S
HARLAN  *      SUNNY     73  66  78 VRB3      30.01F
LAMONI         SUNNY     81  62  52 W8        29.97S HX  82
RED OAK *      SUNNY     75  64  69 CALM      29.98F
SHENANDOAH *   SUNNY     75  64  69 CALM      29.99S
$$

IAZ047>049-059>061-072>074-084-191700-
   CENTRAL IOWA

CITY           SKY/WX    TMP DP  RH WIND       PRES   REMARKS
AMES           MOSUNNY   73  66  78 VRB3      29.98R
ANKENY *       CLOUDY    70  64  83 CALM      29.98S
BOONE *        MOSUNNY   72  64  78 VRB3      29.98R
CHARITON *     SUNNY     77  64  65 NW8       29.96S
DES MOINES     CLOUDY    73  64  73 CALM      29.96S
GRINNELL*      PTSUNNY   73  63  72 E5        29.99F
KNOXVILLE *    SUNNY     75  64  69 CALM      29.95S
MARSHALLTOWN   SUNNY     71  64  78 VRB3      29.98F
NEWTON *       PTSUNNY   73  64  73 SE7       29.98S
PELLA *        SUNNY     78  63  60 E6        29.98S
PERRY *        CLOUDY    72  68  89 W5        29.99S
$$

IAZ004>006-015-016-023>025-035-036-191700-
   NORTH CENTRAL IOWA

CITY           SKY/WX    TMP DP  RH WIND       PRES   REMARKS
ALGONA *       SUNNY     72  63  73 S5        30.00S
CLARION *      SUNNY     72  63  73 CALM      30.00S
ESTHERVILLE    SUNNY     69  63  81 S5        29.99S
FORT DODGE *   PTSUNNY   70  63  78 CALM      30.01S
MASON CITY     MOSUNNY   72  62  71 S6        30.01R
FOREST CITY *    N/A     72  63  73 SW3       30.00S
WEBSTER CITY * SUNNY     72  64  78 CALM      29.97S
IOWA FALLS *     N/A     72  64  75 S5        30.01S
$$

IAZ007>011-017>019-026>030-037>042-050>054-066-191700-
   NORTHEAST IOWA

CITY           SKY/WX    TMP DP  RH WIND       PRES   REMARKS
CEDAR RAPIDS   SUNNY     73  62  68 SE7       29.99R
CHARLES CITY * SUNNY     73  63  68 SW8       30.00S
CLINTON *      SUNNY     74  63  68 SE5       30.00R
DECORAH *      SUNNY     72  59  64 VRB6      29.99S
DUBUQUE        SUNNY     73  59  61 CALM      30.01R
MONTICELLO *   SUNNY     73  59  60 VRB3      29.99S
OELWEIN *      SUNNY     72  59  64 S8        30.00F
WATERLOO       MOSUNNY   74  56  53 VRB7      29.98S
$$

IAZ064-065-067-068-078-191700-
   EAST CENTRAL IOWA

CITY           SKY/WX    TMP DP  RH WIND       PRES   REMARKS
DAVENPORT      SUNNY     74  60  61 VRB3      30.01R
IOWA CITY      SUNNY     75  61  61 SE6       29.99S
MT. PLEASANT * SUNNY     78  62  58 E5        29.97S HX  80
MUSCATINE *    SUNNY     77  59  53 E6        29.98S
QUAD CITIES    SUNNY     75  62  64 VRB3      29.98S
$$

IAZ062-063-075>077-085>089-095>099-191700-
   SOUTHEAST IOWA

CITY           SKY/WX    TMP DP  RH WIND       PRES   REMARKS
BURLINGTON     SUNNY     76  65  68 E7        29.97S
FAIRFIELD *    PTSUNNY   79  61  53 SE8       29.97R HX  80
FORT MADISON * SUNNY     75  66  73 SE5       29.97F
KEOKUK *       SUNNY     77  66  69 E8        29.96S
OSKALOOSA *      N/A     76  63  63 E7        29.97S
CENTERVILLE *    N/A     81  66  61 CALM      29.98S HX  83
OTTUMWA        SUNNY     79  63  57 E6        29.96S HX  80
WASHINGTON *   SUNNY     75  64  69 VRB7      29.99S
$$

ABBREVIATIONS USED IN REMARKS
   TC - TEMPERATURES IN CELSIUS
  WCI - WIND CHILL INDEX
   HX - HEAT INDEX
  VSB - VISIBILITY
$$




USA.gov is the U.S. government's official web portal to all federal, state and local government web resources and services.